Content
SEND FEEDBACK

Daily
Averages
Monthly
Summary
Mexico

CANCUN, QUINTANA ROO


Home > North America > Mexico > Quintana Roo
Elevation: 9 meters     Latitude: 21 09N     Longitude: 086 49W

WEATHER
 
SELECT A DAY
Number of Records: 162,087;   Date Range: 1/1/95 - 4/15/14
 
SHARE

PRINT THIS DATA

[ ← Previous Day ]
WEATHER ALMANAC - 21 FEBRUARY, 2014
[ Next Day → ]
[ °F ]   °C
Weather ElementAverageHighLow
Temperature26.6 °C29 °C (10:41 am)25 °C (5:40 am)
Dewpoint22.8 °C23 °C (3:46 am)22 °C (1:40 am)
Humidity79.9 %89 % (6:43 pm)70 % (10:41 am)
Barometer1015.2 hPa1016.9 hPa (10:47 pm)1013.2 hPa (2:47 am)
Wind Speed16.9 km/h24.1 km/h (9:41 am)
Weather ElementAverage
Visibility11.3 km
Wind DirectionSE (130 °)

Weather ElementTotal
Precipitation---
Cooling Degree Days8.7 (Base 18.3)
Growing Degree Days17 (Base 10)
Averaged from 23 records on 21 February, 2014
WEATHER CONDITIONS BREAKOUT
WIND DIRECTION BREAKOUT
WEATHER BY HOUR - 21 FEBRUARY, 2014
[ °F ]   °C
Local TimeTemperatureDewpointHumidityBarometerVisibilityWind DirectionWind SpeedGust SpeedPrecipitationEventsConditions
1:40 AM26 °C22 °C78 %1014.6 hPa11.3 kmSE (140°)22.2 km/hPartly Cloudy
2:47 AM26 °C22 °C78 %1013.2 hPa11.3 kmSSE (150°)22.2 km/hPartly Cloudy
3:46 AM26 °C23 °C83 %1013.9 hPa11.3 kmSSE (150°)20.4 km/hPartly Cloudy
4:42 AM26 °C22 °C78 %1014.2 hPa11.3 kmSSE (150°)20.4 km/hPartly Cloudy
5:40 AM25 °C22 °C83 %1013.9 hPa11.3 kmSE (140°)16.7 km/hPartly Cloudy
6:43 AM25 °C22 °C83 %1015.6 hPa11.3 kmSE (140°)14.8 km/hScattered Clouds
7:44 AM27 °C23 °C79 %1016.3 hPa11.3 kmSE (140°)16.7 km/hScattered Clouds
8:43 AM28 °C23 °C74 %1015.9 hPa11.3 kmSE (140°)20.4 km/hScattered Clouds
9:41 AM28 °C23 °C74 %1016.6 hPa11.3 kmSE (140°)24.1 km/hScattered Clouds
10:41 AM29 °C23 °C70 %1016.6 hPa11.3 kmSE (130°)22.2 km/hMostly Cloudy
11:44 AM29 °C23 °C70 %1015.2 hPa11.3 kmSE (140°)20.4 km/hMostly Cloudy
12:40 PM29 °C23 °C70 %1015.2 hPa11.3 kmESE (120°)22.2 km/hMostly Cloudy
1:40 PM28 °C23 °C74 %1014.6 hPa11.3 kmSE (140°)20.4 km/hMostly Cloudy
2:43 PM28 °C23 °C74 %1013.9 hPa11.3 kmESE (120°)18.5 km/hMostly Cloudy
3:41 PM28 °C23 °C74 %1014.9 hPa11.3 kmSE (130°)20.4 km/hScattered Clouds
4:42 PM27 °C23 °C79 %1015.2 hPa11.3 kmESE (120°)13 km/hScattered Clouds
5:40 PM26 °C23 °C83 %1014.6 hPa11.3 kmESE (120°)11.1 km/hPartly Cloudy
6:43 PM25 °C23 °C89 %1015.6 hPa11.3 kmESE (120°)9.3 km/hClear
7:44 PM25 °C23 °C89 %1016.3 hPa11.3 kmESE (110°)9.3 km/hScattered Clouds
8:44 PM25 °C23 °C89 %1015.6 hPa11.3 kmESE (110°)9.3 km/hPartly Cloudy
9:48 PM25 °C23 °C89 %1016.6 hPa11.3 kmESE (110°)14.8 km/hPartly Cloudy
10:47 PM25 °C23 °C89 %1016.9 hPa11.3 kmESE (110°)9.3 km/hClear
11:46 PM25 °C23 °C89 %1015.6 hPa11.3 kmESE (120°)9.3 km/hClear
Hourly data recorded from MMUN, located 14.08 kilometers away from Cancun, Quintana Roo







STORIES FROM OUR PARTNERS